Location: Newark
(7.0858°N, 171.3717°E)
Time: 07:24:32
(UTC+00:00)

Courier 1B - Pass Details

Date: 26 November 2020
Orbit: 962 x 1209 km, 28.3° (Epoch: 20 January)

Event Time Altitude Azimuth Distance (km) Brightness Sun altitude
Rises 08:46:23 0° 245° (WSW) 3,642 11.5 -36.2°
Reaches altitude 10° 08:49:00 10° 246° (WSW) 2,708 10.6 -36.8°
Enters shadow 08:53:13 43° 257° (WSW) 1,357 8.5 -37.7°
Maximum altitude 08:55:32 75° 331° (NNW) 1,033 - -38.3°
Drops below altitude 10° 09:02:25 10° 56° (ENE) 2,844 - -39.9°
Sets 09:05:13 0° 58° (ENE) 3,835 - -40.5°
